TimeCDT,TemperatureF,Dew PointF,Humidity,Sea Level PressureIn,VisibilityMPH,Wind Direction,Wind SpeedMPH,Gust SpeedMPH,PrecipitationIn,Events,Conditions,WindDirDegrees,DateUTC
12:13 AM,51.8,44.6,76,29.96,10.0,Calm,Calm,-,N/A,,Clear,0,2013-09-02 05:13:00
12:33 AM,50.0,44.6,82,29.97,10.0,Calm,Calm,-,N/A,,Clear,0,2013-09-02 05:33:00
12:53 AM,48.2,44.6,87,29.97,10.0,Calm,Calm,-,N/A,,Clear,0,2013-09-02 05:53:00
1:13 AM,50.0,44.6,82,29.98,10.0,Calm,Calm,-,N/A,,Scattered Clouds,0,2013-09-02 06:13:00
1:33 AM,51.8,44.6,76,29.98,10.0,Calm,Calm,-,N/A,,Mostly Cloudy,0,2013-09-02 06:33:00
1:53 AM,51.8,44.6,76,29.98,10.0,Calm,Calm,-,N/A,,Scattered Clouds,0,2013-09-02 06:53:00
2:13 AM,51.8,44.6,76,29.98,10.0,Calm,Calm,-,N/A,,Scattered Clouds,0,2013-09-02 07:13:00
2:33 AM,50.0,44.6,82,29.98,10.0,Calm,Calm,-,N/A,,Scattered Clouds,0,2013-09-02 07:33:00
2:53 AM,50.0,44.6,82,29.98,10.0,Calm,Calm,-,N/A,,Clear,0,2013-09-02 07:53:00
3:13 AM,48.2,44.6,87,29.98,10.0,Calm,Calm,-,N/A,,Clear,0,2013-09-02 08:13:00
3:33 AM,48.2,44.6,87,29.98,10.0,Calm,Calm,-,N/A,,Scattered Clouds,0,2013-09-02 08:33:00
3:53 AM,48.2,42.8,82,29.99,10.0,Calm,Calm,-,N/A,,Mostly Cloudy,0,2013-09-02 08:53:00
4:13 AM,48.2,41.0,76,29.99,10.0,Calm,Calm,-,N/A,,Mostly Cloudy,0,2013-09-02 09:13:00
4:33 AM,48.2,42.8,82,30.00,10.0,Calm,Calm,-,N/A,,Mostly Cloudy,0,2013-09-02 09:33:00
4:53 AM,48.2,42.8,82,30.00,10.0,Calm,Calm,-,N/A,,Mostly Cloudy,0,2013-09-02 09:53:00
5:13 AM,48.2,42.8,82,30.00,10.0,Calm,Calm,-,N/A,,Mostly Cloudy,0,2013-09-02 10:13:00
5:33 AM,48.2,42.8,82,30.01,10.0,Calm,Calm,-,N/A,,Mostly Cloudy,0,2013-09-02 10:33:00
5:53 AM,48.2,42.8,82,30.02,5.0,Calm,Calm,-,N/A,,Haze,0,2013-09-02 10:53:00
6:13 AM,48.2,42.8,82,30.03,7.0,North,4.6,-,N/A,,Mostly Cloudy,350,2013-09-02 11:13:00
6:33 AM,46.4,41.0,81,30.03,10.0,Calm,Calm,-,N/A,,Mostly Cloudy,0,2013-09-02 11:33:00
6:53 AM,46.4,41.0,81,30.04,10.0,Calm,Calm,-,N/A,,Scattered Clouds,0,2013-09-02 11:53:00
7:13 AM,46.4,41.0,81,30.04,10.0,Calm,Calm,-,N/A,,Clear,0,2013-09-02 12:13:00
7:33 AM,46.4,41.0,81,30.05,10.0,Calm,Calm,-,N/A,,Clear,0,2013-09-02 12:33:00
7:53 AM,46.4,41.0,81,30.05,10.0,Calm,Calm,-,N/A,,Scattered Clouds,0,2013-09-02 12:53:00
8:13 AM,48.2,41.0,76,30.06,10.0,Calm,Calm,-,N/A,,Clear,0,2013-09-02 13:13:00
8:33 AM,48.2,41.0,76,30.07,10.0,Calm,Calm,-,N/A,,Clear,0,2013-09-02 13:33:00
8:53 AM,48.2,39.2,71,30.07,10.0,Calm,Calm,-,N/A,,Clear,0,2013-09-02 13:53:00
9:13 AM,48.2,41.0,76,30.07,10.0,Calm,Calm,-,N/A,,Clear,0,2013-09-02 14:13:00
9:33 AM,50.0,41.0,71,30.08,10.0,Calm,Calm,-,N/A,,Clear,0,2013-09-02 14:33:00
9:53 AM,50.0,39.2,66,30.07,10.0,Calm,Calm,-,N/A,,Clear,0,2013-09-02 14:53:00
10:13 AM,51.8,39.2,62,30.07,10.0,Calm,Calm,-,N/A,,Clear,0,2013-09-02 15:13:00
10:33 AM,51.8,39.2,62,30.07,10.0,Calm,Calm,-,N/A,,Clear,0,2013-09-02 15:33:00
10:53 AM,51.8,39.2,62,30.07,10.0,Calm,Calm,-,N/A,,Clear,0,2013-09-02 15:53:00
11:13 AM,55.4,41.0,58,30.07,10.0,Calm,Calm,-,N/A,,Clear,0,2013-09-02 16:13:00
11:33 AM,55.4,41.0,58,30.07,10.0,Calm,Calm,-,N/A,,Clear,0,2013-09-02 16:33:00
11:53 AM,57.2,42.8,59,30.07,10.0,Calm,Calm,-,N/A,,Clear,0,2013-09-02 16:53:00
12:13 PM,57.2,41.0,55,30.07,10.0,Calm,Calm,-,N/A,,Clear,0,2013-09-02 17:13:00
12:33 PM,57.2,41.0,55,30.06,10.0,Calm,Calm,-,N/A,,Clear,0,2013-09-02 17:33:00
12:53 PM,59.0,42.8,55,30.06,10.0,Calm,Calm,-,N/A,,Clear,0,2013-09-02 17:53:00
1:13 PM,60.8,42.8,52,30.06,10.0,Calm,Calm,-,N/A,,Clear,0,2013-09-02 18:13:00
1:33 PM,60.8,42.8,52,30.05,10.0,Calm,Calm,-,N/A,,Clear,0,2013-09-02 18:33:00
1:53 PM,62.6,42.8,48,30.04,10.0,Calm,Calm,-,N/A,,Clear,0,2013-09-02 18:53:00
2:13 PM,59.0,44.6,59,30.04,10.0,Calm,Calm,-,N/A,,Clear,0,2013-09-02 19:13:00
2:33 PM,60.8,44.6,55,30.03,10.0,Calm,Calm,-,N/A,,Clear,0,2013-09-02 19:33:00
2:53 PM,60.8,44.6,55,-9999,10.0,Calm,Calm,-,N/A,,Clear,0,2013-09-02 19:53:00
3:13 PM,-9999,-9999,N/A,30.02,10.0,Calm,Calm,-,N/A,,Clear,0,2013-09-02 20:13:00
3:33 PM,64.4,42.8,45,30.02,10.0,Calm,Calm,-,N/A,,Clear,0,2013-09-02 20:33:00
3:53 PM,62.6,46.4,55,30.02,10.0,Calm,Calm,-,N/A,,Clear,0,2013-09-02 20:53:00
4:13 PM,62.6,46.4,55,30.02,10.0,Calm,Calm,-,N/A,,Clear,0,2013-09-02 21:13:00
4:33 PM,62.6,46.4,55,30.02,10.0,Calm,Calm,-,N/A,,Clear,0,2013-09-02 21:33:00
4:54 PM,62.6,46.4,55,30.01,10.0,Calm,Calm,-,N/A,,Clear,0,2013-09-02 21:54:00
5:13 PM,62.6,46.4,55,30.02,10.0,Calm,Calm,-,N/A,,Clear,0,2013-09-02 22:13:00
5:33 PM,62.6,48.2,59,30.02,10.0,Calm,Calm,-,N/A,,Clear,0,2013-09-02 22:33:00
5:53 PM,60.8,48.2,63,30.01,10.0,Calm,Calm,-,N/A,,Clear,0,2013-09-02 22:53:00
6:13 PM,60.8,48.2,63,30.01,10.0,Calm,Calm,-,N/A,,Clear,0,2013-09-02 23:13:00
6:33 PM,59.0,48.2,67,30.01,10.0,Calm,Calm,-,N/A,,Clear,0,2013-09-02 23:33:00
6:53 PM,57.2,48.2,72,30.01,10.0,Calm,Calm,-,N/A,,Clear,0,2013-09-02 23:53:00
7:13 PM,57.2,48.2,72,30.01,10.0,North,-9999.0,-,N/A,,Clear,0,2013-09-03 00:13:00
7:33 PM,55.4,48.2,77,30.02,10.0,Calm,Calm,-,N/A,,Clear,0,2013-09-03 00:33:00
7:53 PM,53.6,48.2,82,30.01,10.0,Calm,Calm,-,N/A,,Clear,0,2013-09-03 00:53:00
8:13 PM,51.8,48.2,88,30.01,10.0,Calm,Calm,-,N/A,,Clear,0,2013-09-03 01:13:00
8:33 PM,51.8,46.4,82,30.01,-9999.0,Calm,Calm,-,N/A,,Clear,0,2013-09-03 01:33:00
8:53 PM,48.2,46.4,93,30.02,10.0,Calm,Calm,-,N/A,,Clear,0,2013-09-03 01:53:00
9:13 PM,48.2,44.6,87,30.02,10.0,Calm,Calm,-,N/A,,Clear,0,2013-09-03 02:13:00
9:33 PM,48.2,44.6,87,30.02,10.0,Calm,Calm,-,N/A,,Clear,0,2013-09-03 02:33:00
9:54 PM,46.4,44.6,93,30.02,10.0,Calm,Calm,-,N/A,,Clear,0,2013-09-03 02:54:00
10:13 PM,46.4,42.8,87,30.02,10.0,Calm,Calm,-,N/A,,Clear,0,2013-09-03 03:13:00
10:33 PM,46.4,42.8,87,30.02,10.0,Calm,Calm,-,N/A,,Clear,0,2013-09-03 03:33:00
10:53 PM,44.6,41.0,87,30.02,10.0,Calm,Calm,-,N/A,,Clear,0,2013-09-03 03:53:00
11:13 PM,44.6,39.2,81,30.02,10.0,Calm,Calm,-,N/A,,Clear,0,2013-09-03 04:13:00
11:33 PM,42.8,39.2,87,30.02,10.0,Calm,Calm,-,N/A,,Clear,0,2013-09-03 04:33:00
11:53 PM,44.6,42.8,93,30.02,10.0,Calm,Calm,-,N/A,,Clear,0,2013-09-03 04:53:00